User: anonymous   Login
Location: Newark
(42.9260°N, 89.3850°W)
Time: 09:28:24
(UTC+00:00)
Language:

STARLINK-1059 - Orbit

View from above orbital plane
View from above orbital plane
View from above satellite
View from above satellite

Ground track
Ground track

The orbit data is extracted from the following two-line orbital elements,

1 44764C 19074BD  20056.19387670  .00001956  00000-0  13401-3 0   567
2 44764  53.0000  22.9813 0001752  52.5244 306.8213 15.05569338    16
Epoch (UTC): 25 February 2020 04:39:10
Eccentricity: 0.0001752
inclination: 53.0000°
perigee height: 548 km
apogee height: 551 km
right ascension of ascending node: 22.9813°
argument of perigee: 52.5244°
revolutions per day: 15.05569338
mean anomaly at epoch: 306.8213°
orbit number at epoch: 1

The dashed part of the orbit path shows where the satellite is in the earth's shadow,  

DLR